[[{"header":{"parameterUnit":"m.s-1","parameterCategory":2,"la1":30.2991,"la2":30.254,"lo1":-89.0895,"lo2":-89.0444,"dy":0.0017,"dx":0.0017,"nx":28,"ny":28,"refTime":"2023-08-10T21:00:00:Z","depth":"0","parameterNumber":2,"parameterNumberName":"U-component_of_CURRENTS"},"data":[0,0,0,0,0,0,0,0,0,0,0,0,0,0,0,0,0,0,0,0,0,0,0,0,0,0,0,0,0,0,0,0,0,0,0,0,0,0,0,0,0,0,0,0,0,0,0,0,0,0,0,0,0,0,0,0,0,0,0.179,0.1791,0,0.1863,0.1864,0.1865,0.1867,0.1867,0.1866,0.1865,0.1876,0.1877,0.1878,0,0,0,0,0,0,0,0,0,0,0,0,0,0.1591,0.1595,0.179,0.1791,0.1792,0.1863,0.1864,0.1865,0.1868,0.1867,0.1866,0.1865,0.1876,0.1877,0.1878,0,0,0,0,0,0,0,0,0,0,0,0,0,0.1671,0.1596,0.179,0.1804,0.1806,0.1863,0.1864,0.1865,0.1868,0.1867,0.1866,0.1865,0.1875,0.1877,0.1878,0.1908,0,0,0.1882,0.1883,0,0,0,0,0,0,0,0,0.1666,0.1678,0.18,0.1803,0.1805,0.1857,0.1798,0.1877,0.1868,0.1842,0.1865,0.1864,0.1866,0.1868,0.1882,0.1909,0.1909,0.1882,0.1883,0.1884,0.1884,0,0,0,0,0,0,0,0.1661,0.1674,0.1817,0.1802,0.1805,0.1785,0.1795,0.1813,0.1856,0.1844,0.1845,0.1857,0.1866,0.1881,0.1882,0.1909,0.1882,0.1884,0.1885,0.1885,0.2107,0.2112,0,0,0,0,0,0,0.1661,0.167,0.1815,0.182,0.1734,0.179,0.1801,0.184,0.1858,0.1861,0.1857,0.1857,0.1879,0.1881,0.1883,0.1977,0.1884,0.1885,0.1886,0.2102,0.2108,0.2114,0,0,0,0,0,0,0.1657,0.1674,0.1812,0.1746,0.1762,0.1795,0.1838,0.1842,0.1857,0.1869,0.1869,0.1868,0.1878,0.1881,0.1935,0.1974,0.1886,0.1887,0.2096,0.2104,0.2111,0.2127,0,0,0,0,0,0,0.1651,0.1673,0.1703,0.1747,0.1766,0.1855,0.1839,0.1844,0.1867,0.1866,0.1879,0.1878,0.1878,0.1933,0.1936,0.1975,0.1888,0.209,0.21,0.2109,0.212,0.2135,0.2147,0,0,0,0,0,0.1644,0.1697,0.1705,0.1722,0.1807,0.1856,0.1864,0.188,0.1868,0.1887,0.1915,0.1878,0.1997,0.1937,0.194,0.198,0.2085,0.2097,0.2108,0.2115,0.2132,0.2146,0,0,0,0,0,0,0.164,0.1704,0.1713,0.1787,0.1818,0.1857,0.1877,0.1885,0.1921,0.1917,0.192,0.1925,0.1992,0.2005,0.194,0.2088,0.2044,0.2057,0.2049,0.2065,0.2078,0.2102,0.189,0,0,0,0,0,0.1651,0.1697,0.1749,0.1804,0.1819,0.1845,0.1866,0.1879,0.1914,0.1927,0.1947,0.1991,0.2046,0.2065,0.2111,0.2171,0.2223,0.2216,0.2229,0.2239,0.2272,0.239,0.2415,0.2151,0.2151,0.2151,0,0,0.1665,0.1704,0.1732,0.1803,0.1823,0.1866,0.1855,0.1891,0.1937,0.1923,0.1993,0.2024,0.2077,0.2156,0.2189,0.2163,0.2348,0.2254,0.2261,0.2289,0.2404,0.2429,0.2451,0.2159,0.2157,0.2156,0,0,0.1697,0.1746,0.1783,0.1813,0.1852,0.1881,0.1892,0.1939,0.1969,0.2039,0.2059,0.2133,0.2191,0.2257,0.2292,0.2416,0.2412,0.2424,0.2497,0.261,0.2631,0.265,0.2752,0.278,0.2429,0.2429,0.2429,0,0.17,0.1771,0.18,0.1836,0.187,0.1889,0.1933,0.1977,0.2042,0.209,0.2068,0.2235,0.2255,0.2388,0.2434,0.244,0.2497,0.2408,0.262,0.2641,0.266,0.276,0.2791,0.2431,0.2431,0.2431,0.2431,0,0.1761,0.1807,0.183,0.1888,0.193,0.1971,0.203,0.2081,0.2114,0.2168,0.2298,0.2357,0.2464,0.2484,0.2485,0.2648,0.2642,0.2611,0.2558,0.2686,0.2785,0.2817,0.2434,0.2434,0.2433,0.2432,0,0,0.1785,0.1856,0.1862,0.1891,0.1961,0.2003,0.2088,0.2187,0.2253,0.2335,0.2447,0.2565,0.2602,0.2654,0.268,0.2772,0.2942,0.2748,0.2753,0.2811,0.3193,0.3118,0.3145,0.2929,0.2935,0.2939,0.3205,0,0.1815,0.1876,0.1924,0.1998,0.2034,0.2092,0.2173,0.2264,0.234,0.2452,0.2557,0.2665,0.2667,0.2713,0.2821,0.2903,0.3028,0.2874,0.3096,0.3104,0.2989,0.318,0.3083,0.3305,0.3236,0.3241,0.3245,0,0.1861,0.1894,0.1956,0.2048,0.2073,0.2134,0.2265,0.2341,0.2495,0.2553,0.2693,0.2764,0.2945,0.2903,0.3169,0.3064,0.316,0.3218,0.3229,0.3179,0.3089,0.3173,0.3365,0.3251,0.3294,0.329,0.3286,0,0.1845,0.1929,0.1977,0.2005,0.2106,0.2168,0.2242,0.2377,0.2459,0.2627,0.2706,0.2908,0.3022,0.318,0.3321,0.3257,0.3588,0.351,0.3556,0.3551,0.3528,0.351,0.3606,0.3741,0.374,0.3739,0.3738,0,0.1864,0.1901,0.1973,0.1994,0.2081,0.2162,0.2272,0.2365,0.2513,0.2619,0.2766,0.2898,0.3096,0.3291,0.3396,0.3592,0.3674,0.3634,0.364,0.3532,0.3512,0.3455,0.3391,0.3749,0.3747,0.3745,0.3743,0,0.1838,0.1873,0.1933,0.2033,0.2066,0.2132,0.2272,0.2351,0.2489,0.2634,0.2697,0.2946,0.3191,0.3389,0.3652,0.3691,0.378,0.3913,0.3764,0.3747,0.3605,0.3546,0.3587,0.3537,0.4006,0.4006,0.4006,0,0.1836,0.1852,0.194,0.1968,0.2015,0.2108,0.2168,0.2316,0.2397,0.2656,0.273,0.3021,0.3215,0.3589,0.3728,0.3949,0.3842,0.3944,0.3804,0.3643,0.3585,0.3417,0.336,0.3801,0.3799,0.3798,0.3797,0,0.1833,0.1853,0.1899,0.1945,0.2006,0.2066,0.2168,0.2224,0.2396,0.2539,0.2758,0.2942,0.331,0.3523,0.3791,0.3876,0.3744,0.3918,0.3822,0.3514,0.3278,0.3213,0.3563,0.3785,0.3786,0.3787,0.3788,0.3788,0.1836,0.186,0.1903,0.1947,0.1986,0.2017,0.2052,0.2164,0.229,0.2474,0.2682,0.2895,0.3262,0.3632,0.3661,0.3671,0.3689,0.3637,0.3613,0.3482,0.3324,0.363,0.3786,0.3787,0.3788,0.3789,0.3789,0,0.1856,0.1862,0.19,0.1934,0.1933,0.1973,0.2038,0.2064,0.2168,0.2354,0.254,0.2833,0.3123,0.333,0.3517,0.3403,0.3254,0.335,0.3117,0.3106,0.3472,0.3346,0.3325,0.3325,0.3325,0.3325,0.3325,0.3325,0.1877,0.1892,0.1898,0.1872,0.1871,0.1869,0.1882,0.1935,0.2036,0.2185,0.2306,0.2463,0.2833,0.316,0.3167,0.3111,0.2916,0.2851,0.2857,0.3107,0.313,0.3153,0.3019,0.2929,0.2929,0.24,0.2396,0.2392]},{"header":{"parameterUnit":"m.s-1","parameterCategory":2,"la1":30.2991,"la2":30.254,"lo1":-89.0895,"lo2":-89.0444,"dy":0.0017,"dx":0.0017,"nx":28,"ny":28,"refTime":"2023-08-10T21:00:00:Z","depth":"0","parameterNumber":3,"parameterNumberName":"V-component_of_CURRENTS"},"data":[0,0,0,0,0,0,0,0,0,0,0,0,0,0,0,0,0,0,0,0,0,0,0,0,0,0,0,0,0,0,0,0,0,0,0,0,0,0,0,0,0,0,0,0,0,0,0,0,0,0,0,0,0,0,0,0,0,0,-0.0233,-0.0234,0,-0.0257,-0.0257,-0.0257,-0.0299,-0.03,-0.0301,-0.0302,-0.035,-0.035,-0.035,0,0,0,0,0,0,0,0,0,0,0,0,0,-0.0214,-0.0214,-0.0233,-0.0234,-0.0234,-0.0256,-0.0257,-0.0257,-0.0299,-0.03,-0.0301,-0.0302,-0.035,-0.035,-0.0351,0,0,0,0,0,0,0,0,0,0,0,0,0,-0.0227,-0.0214,-0.0233,-0.0259,-0.0262,-0.0256,-0.0257,-0.0257,-0.0299,-0.03,-0.0302,-0.0303,-0.0349,-0.035,-0.0351,-0.0325,0,0,-0.0352,-0.0353,0,0,0,0,0,0,0,0,-0.0226,-0.0227,-0.0255,-0.0257,-0.026,-0.0278,-0.0267,-0.0282,-0.0298,-0.0283,-0.0302,-0.0304,-0.0328,-0.033,-0.0329,-0.0328,-0.033,-0.0352,-0.0353,-0.0353,-0.0353,0,0,0,0,0,0,0,-0.0225,-0.0226,-0.0241,-0.0255,-0.0259,-0.0266,-0.0269,-0.027,-0.0296,-0.0284,-0.0288,-0.0293,-0.033,-0.0328,-0.033,-0.033,-0.0352,-0.0353,-0.0353,-0.0353,-0.0286,-0.0284,0,0,0,0,0,0,-0.0224,-0.0225,-0.024,-0.0242,-0.0248,-0.0265,-0.0269,-0.0269,-0.0296,-0.0302,-0.0291,-0.0295,-0.0327,-0.033,-0.0332,-0.0285,-0.0353,-0.0353,-0.0354,-0.0288,-0.0285,-0.0283,0,0,0,0,0,0,-0.0224,-0.0225,-0.0239,-0.0236,-0.0238,-0.0264,-0.0264,-0.0269,-0.0269,-0.0301,-0.0307,-0.0287,-0.0328,-0.0332,-0.0335,-0.0288,-0.0354,-0.0354,-0.0291,-0.0287,-0.0284,-0.0202,0,0,0,0,0,0,-0.0223,-0.0225,-0.0222,-0.0235,-0.0239,-0.0226,-0.0263,-0.0269,-0.027,-0.0274,-0.0299,-0.0305,-0.0329,-0.0334,-0.0336,-0.029,-0.0355,-0.0293,-0.0289,-0.0285,-0.0207,-0.0196,-0.0187,0,0,0,0,0,-0.0222,-0.0209,-0.0222,-0.0224,-0.0235,-0.0225,-0.0226,-0.0249,-0.0268,-0.0255,-0.0283,-0.0304,-0.0309,-0.0334,-0.0336,-0.0289,-0.0295,-0.029,-0.0286,-0.0212,-0.0198,-0.0187,0,0,0,0,0,0,-0.0186,-0.0213,-0.0227,-0.022,-0.0219,-0.0232,-0.0226,-0.0239,-0.0248,-0.0253,-0.0291,-0.0298,-0.0277,-0.0294,-0.032,-0.0255,-0.0299,-0.0294,-0.0242,-0.0229,-0.0219,-0.0183,-0.0355,0,0,0,0,0,-0.018,-0.0183,-0.0199,-0.0188,-0.0191,-0.0206,-0.0206,-0.0213,-0.0225,-0.023,-0.0247,-0.0257,-0.0255,-0.0255,-0.0257,-0.0229,-0.0242,-0.0194,-0.0183,-0.0175,-0.0144,-0.0147,-0.0135,-0.0267,-0.0267,-0.0268,0,0,-0.0157,-0.0175,-0.0173,-0.0181,-0.0187,-0.0163,-0.0209,-0.0195,-0.0162,-0.0232,-0.0199,-0.0225,-0.0241,-0.0211,-0.02,-0.0222,-0.0142,-0.0169,-0.0161,-0.0135,-0.0141,-0.0128,-0.0117,-0.0264,-0.0265,-0.0265,0,0,-0.0111,-0.0134,-0.0121,-0.0119,-0.0124,-0.0126,-0.0119,-0.0122,-0.0117,-0.0091,-0.013,-0.0128,-0.0125,-0.0124,-0.0125,-0.0054,-0.0091,-0.0052,0.0031,0.0027,0.0038,0.0047,0.0049,0.0058,-0.0045,-0.0045,-0.0045,0,-0.0084,-0.0071,-0.0109,-0.0091,-0.0075,-0.0104,-0.0063,-0.0053,-0.0051,-0.0031,-0.0066,-0.0043,-0.0072,-0.0024,-0.0007,-0.0028,-0.0042,-0.0021,0.004,0.0049,0.0057,0.0056,0.0065,-0.004,-0.0041,-0.0041,-0.0042,0,-0.0025,-0.0013,-0.0001,0.001,0.0027,0.0058,0.0064,0.0089,0.0088,0.0097,0.014,0.0102,0.0119,0.0111,0.0068,0.0125,0.0093,0.0047,0.0005,0.0075,0.007,0.0077,-0.0034,-0.0035,-0.0037,-0.0038,0,0,0.0037,0.0038,0.0046,0.0072,0.0084,0.0114,0.0168,0.0215,0.0262,0.0266,0.0332,0.0323,0.0299,0.0298,0.0252,0.0244,0.0271,0.0173,0.0171,0.0171,0.0266,0.0236,0.024,0.0221,0.0223,0.0224,0.024,0,0.0099,0.0147,0.014,0.0222,0.0252,0.0255,0.0311,0.0352,0.0371,0.0425,0.0412,0.0445,0.0373,0.0375,0.0365,0.0294,0.0294,0.0272,0.0204,0.0204,0.0163,0.025,0.0262,0.0276,0.0247,0.0248,0.0249,0,0.0161,0.0186,0.0256,0.0321,0.0339,0.039,0.0476,0.0524,0.0578,0.0592,0.0625,0.0603,0.0621,0.0532,0.0489,0.0472,0.0392,0.0328,0.0326,0.0281,0.0188,0.0202,0.029,0.0135,0.0259,0.0258,0.0258,0,0.021,0.0278,0.0337,0.0358,0.0419,0.0472,0.0519,0.0577,0.0632,0.0698,0.0742,0.0751,0.0762,0.0684,0.0564,0.0523,0.05,0.0422,0.0332,0.0328,0.0322,0.0314,0.0252,0.0401,0.0401,0.0401,0.0401,0,0.0269,0.0325,0.0368,0.0398,0.0509,0.053,0.0641,0.0685,0.0755,0.0843,0.083,0.0902,0.0794,0.0764,0.0635,0.0528,0.0561,0.0383,0.0343,0.0351,0.0346,0.0195,0.0112,0.0402,0.0402,0.0402,0.0402,0,0.0314,0.0325,0.0408,0.0487,0.0522,0.0605,0.0714,0.0787,0.084,0.0956,0.0984,0.1024,0.0994,0.0876,0.0755,0.0626,0.0431,0.0455,0.0478,0.044,0.0196,0.0118,0.0051,-0.0024,0.0373,0.0373,0.0373,0,0.0338,0.0373,0.0474,0.0531,0.0573,0.0682,0.0752,0.0825,0.0905,0.104,0.1109,0.1128,0.118,0.1016,0.0778,0.0585,0.0436,0.0453,0.0378,0.0221,0.0105,0.0044,-0.002,0.0402,0.0402,0.0402,0.0402,0,0.0397,0.0424,0.0494,0.0603,0.0688,0.08,0.0909,0.0986,0.1084,0.1195,0.1344,0.1402,0.1252,0.1115,0.0834,0.0656,0.0353,0.0443,0.0282,0.0145,0.0077,-0.0028,0.0347,0.0401,0.0402,0.0402,0.0402,0.0402,0.0447,0.0511,0.0585,0.0706,0.0797,0.0921,0.104,0.1153,0.1312,0.1506,0.1522,0.1634,0.1426,0.106,0.0766,0.0292,0.0308,0.0189,0.0117,0.0076,-0.0017,0.0361,0.0358,0.0357,0.0357,0.0357,0.0357,0,0.0506,0.0571,0.0681,0.082,0.094,0.0977,0.115,0.1285,0.1494,0.1633,0.1777,0.1731,0.1442,0.103,0.0432,0.0054,-0.0108,-0.0105,-0.019,-0.0236,0.0109,0.0086,0.0023,0.0023,0.0023,0.0024,0.0024,0.0024,0.0541,0.0639,0.0703,0.0918,0.1025,0.1216,0.1332,0.1524,0.1663,0.1866,0.1916,0.1937,0.1676,0.0699,-0.0043,-0.0232,-0.0507,-0.0505,-0.0637,-0.0417,-0.0395,-0.0375,-0.0417,-0.0584,-0.0585,-0.0947,-0.0951,-0.0954]}],[{"header":{"parameterUnit":"m.s-1","parameterCategory":2,"la1":30.2991,"la2":30.254,"lo1":-89.0895,"lo2":-89.0444,"dy":0.0017,"dx":0.0017,"nx":28,"ny":28,"refTime":"2023-08-10T21:00:00:Z","depth":"2","parameterNumber":2,"parameterNumberName":"U-component_of_CURRENTS"},"data":[0,0,0,0,0,0,0,0,0,0,0,0,0,0,0,0,0,0,0,0,0,0,0,0,0,0,0,0,0,0,0,0,0,0,0,0,0,0,0,0,0,0,0,0,0,0,0,0,0,0,0,0,0,0,0,0,0,0,0.0036,0.0036,0,0.0112,0.0114,0.0115,0.0262,0.0264,0.0266,0.0268,0.0571,0.0577,0.0583,0,0,0,0,0,0,0,0,0,0,0,0,0,0.004,0.004,0.0036,0.0036,0.0037,0.0112,0.0114,0.0116,0.0262,0.0264,0.0267,0.0269,0.0569,0.0576,0.0584,0,0,0,0,0,0,0,0,0,0,0,0,0,0.0078,0.004,0.0036,0.0112,0.0119,0.0111,0.0114,0.0116,0.0261,0.0264,0.0267,0.027,0.0567,0.0576,0.0585,0.058,0,0,0.0613,0.0617,0,0,0,0,0,0,0,0,0.0076,0.0079,0.0101,0.0107,0.0114,0.0173,0.0226,0.028,0.0261,0.0217,0.0268,0.0272,0.0451,0.047,0.0487,0.0595,0.0608,0.0614,0.0619,0.0623,0.0626,0,0,0,0,0,0,0,0.0073,0.0076,0.0076,0.01,0.0108,0.0149,0.0158,0.0236,0.0327,0.0221,0.0229,0.0222,0.0458,0.0477,0.0496,0.0612,0.0614,0.0622,0.0627,0.0631,0.0741,0.0738,0,0,0,0,0,0,0.004,0.0073,0.0073,0.0077,0.0092,0.0145,0.0157,0.0158,0.0322,0.0345,0.022,0.0229,0.046,0.0485,0.0507,0.0711,0.0623,0.0632,0.0637,0.0744,0.074,0.0738,0,0,0,0,0,0,0.004,0.004,0.007,0.007,0.0075,0.0141,0.0142,0.0158,0.0228,0.0316,0.0347,0.0278,0.0463,0.0494,0.0574,0.0717,0.0636,0.0644,0.0747,0.0743,0.0739,0.0992,0,0,0,0,0,0,0.004,0.004,0.0065,0.0067,0.0074,0.0112,0.0139,0.0157,0.0211,0.0226,0.0375,0.0403,0.0468,0.0559,0.0583,0.0728,0.0652,0.075,0.0745,0.074,0.0987,0.0997,0.1006,0,0,0,0,0,0.004,0.003,0.0066,0.0068,0.0095,0.0112,0.0123,0.0184,0.0211,0.0257,0.0312,0.0402,0.0545,0.0565,0.0594,0.0746,0.0752,0.0746,0.0741,0.0983,0.0995,0.1006,0,0,0,0,0,0,0.0074,0.0043,0.0084,0.0078,0.0123,0.0135,0.0198,0.0199,0.0276,0.0349,0.0385,0.0416,0.0561,0.0539,0.0559,0.0728,0.0657,0.0657,0.0831,0.0843,0.0853,0.091,0.0659,0,0,0,0,0,0.0082,0.0054,0.0076,0.0084,0.0136,0.0176,0.0201,0.026,0.03,0.0343,0.0391,0.0452,0.0542,0.0601,0.067,0.0757,0.0754,0.0844,0.0854,0.0864,0.0908,0.095,0.0973,0.0718,0.0718,0.0718,0,0,0.0074,0.0075,0.0052,0.0088,0.0161,0.021,0.0208,0.0308,0.0338,0.0366,0.0444,0.0525,0.0564,0.0693,0.075,0.0711,0.0926,0.0856,0.0868,0.0907,0.0947,0.0974,0.0998,0.0714,0.0715,0.0716,0,0,0.0107,0.0105,0.0149,0.0167,0.0281,0.0295,0.0323,0.0381,0.0435,0.048,0.0541,0.0682,0.071,0.0835,0.0881,0.0954,0.0989,0.0944,0.1068,0.111,0.1136,0.1158,0.1196,0.122,0.0937,0.0937,0.0938,0,0.014,0.0181,0.0169,0.024,0.0259,0.0326,0.0407,0.0439,0.0489,0.0542,0.0533,0.0702,0.0799,0.0992,0.1043,0.1016,0.0995,0.1065,0.1141,0.1162,0.1181,0.1214,0.1238,0.0949,0.0947,0.0946,0.0945,0,0.0184,0.0261,0.0304,0.0382,0.0393,0.0483,0.0511,0.0583,0.0623,0.064,0.0825,0.0936,0.1027,0.1102,0.1126,0.1325,0.1255,0.118,0.1158,0.1226,0.1251,0.1272,0.0965,0.0961,0.0958,0.0955,0,0,0.0225,0.0316,0.0367,0.0415,0.0488,0.0495,0.0591,0.0685,0.0758,0.0846,0.0929,0.1173,0.1244,0.1295,0.1383,0.1478,0.1658,0.14,0.1397,0.1521,0.1734,0.1481,0.1478,0.1584,0.1588,0.1592,0.1706,0,0.0341,0.0442,0.0468,0.0567,0.0617,0.0668,0.0719,0.0794,0.0846,0.0918,0.111,0.1235,0.1295,0.1419,0.152,0.1614,0.1716,0.1634,0.1575,0.1575,0.1412,0.1495,0.1456,0.1533,0.1725,0.1729,0.1731,0,0.0434,0.0477,0.059,0.0657,0.0704,0.0749,0.0846,0.093,0.1057,0.1105,0.126,0.1317,0.156,0.1549,0.1772,0.1693,0.1753,0.1814,0.1815,0.1514,0.1359,0.1481,0.1562,0.1764,0.1761,0.1759,0.1757,0,0.0404,0.0572,0.0646,0.0647,0.0733,0.0826,0.0913,0.1021,0.1102,0.1259,0.1309,0.1489,0.1637,0.1714,0.1836,0.1798,0.2006,0.1933,0.1779,0.176,0.1685,0.1649,0.2096,0.2096,0.2096,0.2096,0.2095,0,0.0435,0.0529,0.0654,0.065,0.0807,0.0854,0.1015,0.1131,0.1254,0.1362,0.1445,0.1536,0.1686,0.1779,0.1842,0.1858,0.1994,0.1844,0.1783,0.1755,0.1726,0.1871,0.1843,0.21,0.2099,0.2098,0.2097,0,0.0415,0.0502,0.0601,0.0723,0.0794,0.0915,0.1082,0.1152,0.1309,0.1447,0.151,0.1609,0.174,0.1832,0.199,0.1875,0.1917,0.1901,0.185,0.1776,0.1646,0.1629,0.1713,0.1705,0.1698,0.1693,0.1688,0,0.0444,0.0462,0.0626,0.071,0.0805,0.0967,0.1066,0.121,0.1262,0.148,0.1526,0.1687,0.167,0.173,0.1756,0.1766,0.1864,0.1617,0.1532,0.168,0.1614,0.1606,0.1598,0.157,0.1565,0.1561,0.1557,0,0.0444,0.0505,0.0526,0.068,0.0812,0.0953,0.1098,0.113,0.1322,0.1389,0.1495,0.149,0.1582,0.1507,0.1472,0.1475,0.1576,0.151,0.1761,0.1593,0.1532,0.1468,0.147,0.1519,0.1523,0.1526,0.1528,0.1529,0.0439,0.0499,0.0509,0.0694,0.079,0.0935,0.1054,0.1095,0.119,0.1317,0.132,0.1319,0.1285,0.1186,0.1193,0.1291,0.1322,0.1228,0.1251,0.1276,0.1158,0.1079,0.0965,0.0965,0.0966,0.0966,0.0967,0,0.0451,0.0485,0.0547,0.0714,0.0771,0.0915,0.106,0.1092,0.1176,0.1222,0.1211,0.1028,0.0896,0.1022,0.1086,0.0948,0.1087,0.0929,0.1131,0.1163,0.1194,0.1082,0.0865,0.0865,0.0865,0.0865,0,0,0.0431,0.0497,0.0567,0.0697,0.0816,0.1004,0.1138,0.113,0.115,0.1029,0.1054,0.0905,0.0934,0.0885,0.0841,0.09,0.107,0.0909,0.0986,0.126,0.1293,0.1341,0.1196,0,0,0,0,0]},{"header":{"parameterUnit":"m.s-1","parameterCategory":2,"la1":30.2991,"la2":30.254,"lo1":-89.0895,"lo2":-89.0444,"dy":0.0017,"dx":0.0017,"nx":28,"ny":28,"refTime":"2023-08-10T21:00:00:Z","depth":"2","parameterNumber":3,"parameterNumberName":"V-component_of_CURRENTS"},"data":[0,0,0,0,0,0,0,0,0,0,0,0,0,0,0,0,0,0,0,0,0,0,0,0,0,0,0,0,0,0,0,0,0,0,0,0,0,0,0,0,0,0,0,0,0,0,0,0,0,0,0,0,0,0,0,0,0,0,-0.0229,-0.0229,0,-0.0283,-0.0285,-0.0286,-0.0399,-0.04,-0.0402,-0.0402,-0.055,-0.0553,-0.0556,0,0,0,0,0,0,0,0,0,0,0,0,0,-0.0255,-0.0254,-0.0229,-0.0229,-0.0228,-0.0283,-0.0285,-0.0287,-0.0399,-0.0401,-0.0402,-0.0403,-0.0549,-0.0552,-0.0556,0,0,0,0,0,0,0,0,0,0,0,0,0,-0.0282,-0.0254,-0.0229,-0.0281,-0.0285,-0.0282,-0.0285,-0.0287,-0.0399,-0.0401,-0.0402,-0.0404,-0.0548,-0.0552,-0.0556,-0.0553,0,0,-0.057,-0.0572,0,0,0,0,0,0,0,0,-0.028,-0.0283,-0.0274,-0.0277,-0.0282,-0.0324,-0.0347,-0.0376,-0.0399,-0.037,-0.0403,-0.0404,-0.0473,-0.0484,-0.0508,-0.0559,-0.0566,-0.057,-0.0573,-0.0575,-0.0576,0,0,0,0,0,0,0,-0.0278,-0.0281,-0.0264,-0.0273,-0.0277,-0.0311,-0.0318,-0.0354,-0.0424,-0.0373,-0.0378,-0.0362,-0.0478,-0.0504,-0.0513,-0.0568,-0.057,-0.0574,-0.0577,-0.0579,-0.0642,-0.0642,0,0,0,0,0,0,-0.0241,-0.0279,-0.0262,-0.0264,-0.027,-0.0308,-0.0316,-0.032,-0.0422,-0.0434,-0.036,-0.0366,-0.0495,-0.0507,-0.0518,-0.0521,-0.0575,-0.0579,-0.0582,-0.0643,-0.0642,-0.0641,0,0,0,0,0,0,-0.0242,-0.024,-0.026,-0.0261,-0.0264,-0.0304,-0.0308,-0.032,-0.0357,-0.0409,-0.0427,-0.0385,-0.0497,-0.0512,-0.0575,-0.0528,-0.0581,-0.0585,-0.0645,-0.0643,-0.0642,-0.0527,0,0,0,0,0,0,-0.0243,-0.0241,-0.0251,-0.0259,-0.0262,-0.0238,-0.0306,-0.0319,-0.0337,-0.0347,-0.0435,-0.045,-0.0499,-0.0568,-0.058,-0.0535,-0.0588,-0.0646,-0.0644,-0.0642,-0.0532,-0.0521,-0.0513,0,0,0,0,0,-0.0244,-0.0238,-0.0251,-0.0249,-0.0269,-0.0235,-0.0241,-0.0284,-0.0336,-0.0331,-0.0422,-0.0448,-0.0563,-0.0572,-0.0585,-0.0541,-0.0647,-0.0644,-0.0642,-0.0536,-0.0523,-0.0513,0,0,0,0,0,0,-0.0253,-0.0248,-0.0263,-0.0258,-0.0235,-0.0248,-0.0258,-0.0281,-0.0349,-0.0383,-0.0457,-0.0477,-0.05,-0.0547,-0.0555,-0.0554,-0.0599,-0.06,-0.0514,-0.0503,-0.0493,-0.0465,-0.0592,0,0,0,0,0,-0.0253,-0.025,-0.0235,-0.0224,-0.0223,-0.0245,-0.0247,-0.0263,-0.0305,-0.0339,-0.039,-0.0456,-0.0497,-0.0526,-0.0562,-0.0579,-0.0618,-0.0553,-0.0544,-0.0535,-0.0522,-0.056,-0.0552,-0.0634,-0.0634,-0.0634,0,0,-0.0237,-0.0243,-0.0234,-0.0224,-0.0235,-0.022,-0.0255,-0.0246,-0.0245,-0.0342,-0.0384,-0.0423,-0.0494,-0.0508,-0.052,-0.0547,-0.0531,-0.0533,-0.0525,-0.0516,-0.0557,-0.0549,-0.0542,-0.0633,-0.0633,-0.0633,0,0,-0.0199,-0.0227,-0.0213,-0.0201,-0.0192,-0.0203,-0.0194,-0.0201,-0.0227,-0.0254,-0.0317,-0.0331,-0.0411,-0.0425,-0.0455,-0.0415,-0.0475,-0.0425,-0.0361,-0.0397,-0.0391,-0.0385,-0.0416,-0.0415,-0.0426,-0.0425,-0.0425,0,-0.0183,-0.0175,-0.0194,-0.0181,-0.0166,-0.0194,-0.0164,-0.019,-0.021,-0.022,-0.0256,-0.0322,-0.0362,-0.037,-0.0353,-0.0386,-0.0434,-0.0397,-0.0384,-0.0379,-0.0376,-0.0409,-0.0409,-0.042,-0.042,-0.0421,-0.0421,0,-0.0137,-0.0132,-0.0122,-0.0126,-0.0112,-0.0086,-0.0099,-0.0102,-0.0141,-0.0158,-0.0164,-0.0212,-0.0248,-0.0241,-0.0295,-0.027,-0.032,-0.0361,-0.0408,-0.036,-0.0399,-0.04,-0.0411,-0.0413,-0.0415,-0.0417,0,0,-0.0096,-0.0087,-0.0091,-0.0071,-0.0081,-0.0053,-0.0061,-0.0052,-0.0048,-0.0076,-0.0066,-0.0097,-0.0113,-0.0144,-0.0175,-0.0191,-0.0189,-0.0264,-0.0269,-0.0286,-0.0283,-0.0281,-0.0283,-0.0249,-0.0249,-0.0249,-0.0317,0,-0.0054,-0.0018,-0.0026,0.0023,0.0044,0.0027,0.0042,0.0038,0.001,0.001,-0.0029,-0.0031,-0.0085,-0.0075,-0.0107,-0.0168,-0.0192,-0.0168,-0.0335,-0.0339,-0.0335,-0.0283,-0.0291,-0.035,-0.0319,-0.0319,-0.032,0,-0.002,-0.0,0.0051,0.0107,0.0116,0.0143,0.0163,0.0185,0.0158,0.0143,0.0116,0.0064,0.0051,-0.0,-0.0096,-0.0093,-0.0176,-0.0226,-0.0232,-0.0269,-0.0339,-0.0396,-0.0355,-0.0323,-0.0323,-0.0323,-0.0323,0,0.0004,0.0055,0.0099,0.0113,0.0162,0.0193,0.0224,0.0222,0.0258,0.0237,0.0258,0.0177,0.018,0.0051,-0.0067,-0.0097,-0.018,-0.0242,-0.0315,-0.0317,-0.0371,-0.0377,-0.0307,-0.0307,-0.0307,-0.0306,-0.0306,0,0.0043,0.0082,0.0119,0.0145,0.0234,0.025,0.0333,0.035,0.0378,0.0442,0.0344,0.0374,0.0192,0.0106,-0.0041,-0.0172,-0.0174,-0.0284,-0.0326,-0.033,-0.0332,-0.0354,-0.0359,-0.0309,-0.0308,-0.0308,-0.0308,0,0.0079,0.0086,0.0159,0.022,0.0251,0.032,0.043,0.049,0.0513,0.0593,0.06,0.0523,0.0407,0.022,0.0036,-0.0096,-0.0241,-0.029,-0.0273,-0.0311,-0.0369,-0.0367,-0.0392,-0.0393,-0.0393,-0.0393,-0.0393,0,0.009,0.0126,0.0223,0.0276,0.0314,0.0413,0.0494,0.0553,0.0626,0.0695,0.0745,0.0657,0.0554,0.0281,0.0056,-0.0203,-0.0229,-0.0339,-0.038,-0.0334,-0.0374,-0.0371,-0.0369,-0.0415,-0.0416,-0.0416,-0.0416,0,0.0143,0.0181,0.0268,0.0374,0.0461,0.0574,0.069,0.0758,0.0845,0.0892,0.0943,0.0853,0.0592,0.0286,-0.0043,-0.0187,-0.0307,-0.0351,-0.0313,-0.0379,-0.0358,-0.0396,-0.0393,-0.0419,-0.0418,-0.0418,-0.0418,-0.0418,0.0205,0.029,0.04,0.051,0.0604,0.0727,0.0848,0.0943,0.1058,0.1086,0.098,0.0812,0.0494,0.0011,-0.0172,-0.0293,-0.032,-0.0426,-0.0425,-0.0424,-0.04,-0.0379,-0.044,-0.044,-0.044,-0.044,-0.044,0,0.029,0.0398,0.0514,0.0667,0.0784,0.0813,0.0985,0.107,0.1201,0.11,0.1005,0.0587,0.0218,-0.0021,-0.0234,-0.0412,-0.0396,-0.043,-0.0425,-0.0424,-0.0422,-0.0397,-0.0437,-0.0437,-0.0437,-0.0436,0,0,0.0342,0.0489,0.0561,0.0783,0.0892,0.1085,0.1189,0.1287,0.127,0.1082,0.0904,0.0494,0.0204,-0.0001,-0.0231,-0.0303,-0.0284,-0.0284,-0.0281,-0.0245,-0.0239,-0.043,-0.0392,0,0,0,0,0]}],[{"header":{"parameterUnit":"m.s-1","parameterCategory":2,"la1":30.2991,"la2":30.254,"lo1":-89.0895,"lo2":-89.0444,"dy":0.0017,"dx":0.0017,"nx":28,"ny":28,"refTime":"2023-08-10T21:00:00:Z","depth":"4","parameterNumber":2,"parameterNumberName":"U-component_of_CURRENTS"},"data":[0,0,0,0,0,0,0,0,0,0,0,0,0,0,0,0,0,0,0,0,0,0,0,0,0,0,0,0,0,0,0,0,0,0,0,0,0,0,0,0,0,0,0,0,0,0,0,0,0,0,0,0,0,0,0,0,0,0,-0.0249,-0.0248,0,-0.0212,-0.0212,-0.0211,-0.018,-0.0179,-0.0179,-0.0179,-0.0289,-0.0292,-0.0295,0,0,0,0,0,0,0,0,0,0,0,0,0,-0.0305,-0.0304,-0.0249,-0.0248,-0.0248,-0.0212,-0.0212,-0.0211,-0.018,-0.0179,-0.0179,-0.0178,-0.0288,-0.0292,-0.0295,0,0,0,0,0,0,0,0,0,0,0,0,0,-0.0276,-0.0304,-0.0249,-0.0228,-0.0226,-0.0212,-0.0212,-0.0211,-0.018,-0.0179,-0.0179,-0.0178,-0.0286,-0.0291,-0.0296,-0.0337,0,0,-0.0311,-0.0313,0,0,0,0,0,0,0,0,-0.0278,-0.0274,-0.0231,-0.0229,-0.0227,-0.02,-0.0272,-0.026,-0.018,-0.0197,-0.0179,-0.0178,-0.0273,-0.0279,-0.0271,-0.0343,-0.0347,-0.0311,-0.0314,-0.0317,-0.0318,0,0,0,0,0,0,0,-0.028,-0.0275,-0.0234,-0.0231,-0.0228,-0.0225,-0.022,-0.0269,-0.0242,-0.0196,-0.0193,-0.0189,-0.0273,-0.0266,-0.0274,-0.0349,-0.0311,-0.0316,-0.0319,-0.0321,-0.0446,-0.0446,0,0,0,0,0,0,-0.0284,-0.0277,-0.0236,-0.0233,-0.0251,-0.0224,-0.0219,-0.0209,-0.0238,-0.024,-0.019,-0.0188,-0.0258,-0.0268,-0.0278,-0.0351,-0.0317,-0.0321,-0.0324,-0.0446,-0.0446,-0.0447,0,0,0,0,0,0,-0.0285,-0.028,-0.0237,-0.0255,-0.0249,-0.0223,-0.0213,-0.0209,-0.0204,-0.0231,-0.0237,-0.019,-0.0258,-0.0271,-0.0313,-0.0355,-0.0323,-0.0328,-0.0445,-0.0446,-0.0446,-0.0485,0,0,0,0,0,0,-0.0287,-0.0281,-0.0277,-0.0255,-0.0248,-0.0233,-0.0214,-0.0208,-0.0202,-0.02,-0.0235,-0.0243,-0.0259,-0.0305,-0.0318,-0.0361,-0.0332,-0.0445,-0.0445,-0.0446,-0.0483,-0.0486,-0.049,0,0,0,0,0,-0.0289,-0.028,-0.0277,-0.0272,-0.0243,-0.0233,-0.023,-0.021,-0.0203,-0.0204,-0.0219,-0.0242,-0.0319,-0.031,-0.0324,-0.037,-0.0444,-0.0445,-0.0446,-0.0481,-0.0486,-0.0489,0,0,0,0,0,0,-0.0301,-0.0275,-0.0272,-0.0256,-0.025,-0.0228,-0.0224,-0.0217,-0.0226,-0.0223,-0.0251,-0.0262,-0.0307,-0.0329,-0.0318,-0.0403,-0.0385,-0.0389,-0.0407,-0.0411,-0.0415,-0.0407,-0.0336,0,0,0,0,0,-0.0304,-0.0295,-0.0276,-0.0269,-0.0264,-0.0249,-0.0243,-0.0229,-0.0231,-0.0233,-0.0262,-0.0291,-0.0322,-0.0357,-0.0378,-0.0443,-0.0423,-0.0477,-0.048,-0.0483,-0.0484,-0.0507,-0.0513,-0.0449,-0.0449,-0.0449,0,0,-0.0307,-0.0295,-0.0289,-0.0272,-0.0265,-0.0251,-0.0244,-0.0233,-0.0228,-0.025,-0.0271,-0.03,-0.0333,-0.0383,-0.0409,-0.0414,-0.0478,-0.0484,-0.0487,-0.0486,-0.0509,-0.0515,-0.052,-0.045,-0.045,-0.045,0,0,-0.031,-0.03,-0.0292,-0.0282,-0.0267,-0.0257,-0.0258,-0.0246,-0.0248,-0.0274,-0.0281,-0.0328,-0.0388,-0.0418,-0.0441,-0.048,-0.048,-0.05,-0.054,-0.0563,-0.0568,-0.0573,-0.0501,-0.05,-0.0522,-0.0522,-0.0522,0,-0.0318,-0.0297,-0.0291,-0.0277,-0.0265,-0.0262,-0.0246,-0.025,-0.0257,-0.0268,-0.0283,-0.0357,-0.04,-0.0455,-0.0479,-0.0491,-0.0475,-0.0527,-0.0568,-0.0573,-0.0578,-0.0503,-0.0501,-0.0524,-0.0524,-0.0524,-0.0523,0,-0.0304,-0.0289,-0.0285,-0.0265,-0.0257,-0.0244,-0.024,-0.0251,-0.0267,-0.0273,-0.0327,-0.0384,-0.0435,-0.0467,-0.0501,-0.0564,-0.0526,-0.0555,-0.0561,-0.0587,-0.0505,-0.0502,-0.0527,-0.0526,-0.0525,-0.0525,0,0,-0.0315,-0.0281,-0.0279,-0.0265,-0.0243,-0.0234,-0.0239,-0.0241,-0.0243,-0.0293,-0.0311,-0.041,-0.0453,-0.0483,-0.0537,-0.0586,-0.0605,-0.0608,-0.0609,-0.0538,-0.0594,-0.0506,-0.0493,-0.0661,-0.0662,-0.0663,-0.0504,0,-0.0308,-0.0276,-0.0262,-0.0238,-0.0218,-0.0214,-0.0217,-0.0221,-0.0244,-0.0265,-0.0337,-0.0382,-0.0455,-0.0505,-0.0566,-0.0587,-0.0609,-0.0641,-0.0577,-0.0573,-0.0497,-0.0493,-0.0667,-0.0501,-0.0501,-0.05,-0.05,0,-0.0295,-0.0273,-0.0242,-0.0214,-0.0206,-0.0194,-0.0191,-0.0197,-0.0222,-0.025,-0.0315,-0.0359,-0.0438,-0.0503,-0.0553,-0.0575,-0.0598,-0.0609,-0.0604,-0.0513,-0.0483,-0.0484,-0.0494,-0.0494,-0.0495,-0.0495,-0.0496,0,-0.0294,-0.0261,-0.0235,-0.0221,-0.0191,-0.0187,-0.0183,-0.0193,-0.0197,-0.0249,-0.0257,-0.034,-0.0372,-0.0441,-0.0485,-0.0535,-0.0492,-0.0549,-0.0465,-0.0454,-0.0564,-0.0561,-0.0582,-0.0582,-0.0583,-0.0583,-0.0583,0,-0.0282,-0.0265,-0.0232,-0.0213,-0.0188,-0.0179,-0.0166,-0.0181,-0.0192,-0.0188,-0.0265,-0.0275,-0.0376,-0.0369,-0.0433,-0.0403,-0.0443,-0.0449,-0.0425,-0.0572,-0.0573,-0.0557,-0.0556,-0.0577,-0.0578,-0.0579,-0.058,0,-0.0283,-0.0261,-0.023,-0.0195,-0.0183,-0.0171,-0.0146,-0.0141,-0.0159,-0.0155,-0.0178,-0.0205,-0.0203,-0.0233,-0.0278,-0.0296,-0.0302,-0.0285,-0.0347,-0.033,-0.025,-0.0253,-0.0168,-0.0164,-0.0161,-0.0158,-0.0156,0,-0.0278,-0.026,-0.0215,-0.0193,-0.0175,-0.0152,-0.0133,-0.0137,-0.0129,-0.0112,-0.0105,-0.0087,-0.0112,-0.004,-0.0113,-0.0121,-0.0167,-0.012,-0.0292,-0.0231,-0.0216,-0.0225,-0.0232,-0.015,-0.0149,-0.0149,-0.0148,0,-0.0268,-0.0255,-0.0229,-0.0181,-0.0152,-0.0116,-0.0091,-0.0074,-0.0074,-0.0081,-0.0033,-0.0024,0.0027,0.0005,0.0036,-0.0012,-0.0133,-0.0086,-0.0097,-0.0258,-0.0209,-0.0199,-0.021,-0.0136,-0.0138,-0.0139,-0.0139,0,-0.0267,-0.0248,-0.0212,-0.017,-0.0129,-0.008,-0.0068,-0.0032,-0.0016,-0.0,0.0027,0.004,0.0046,0.0068,0.0071,0.0075,0.0019,-0.0016,-0.0032,-0.0045,-0.0092,-0.0016,0.0153,0,0,0,0,0,-0.0259,-0.0234,-0.0199,-0.014,-0.0097,-0.007,-0.0036,-0.0029,-0.0014,0.0028,0.0028,0.006,0.009,0.0099,0.0115,0.0095,0.0009,0.0115,-0.0043,-0.007,-0.0084,-0.0157,0,0,0,0,0,0,-0.0249,-0.0221,-0.02,-0.0123,-0.0078,-0.0026,-0.0001,0.0008,0.0034,0.0044,0.0059,0.0069,0.0089,0.0078,0.0115,0.0117,0.0022,0.0122,0.0123,-0.0062,-0.0075,-0.0086,-0.0166,0,0,0,0,0]},{"header":{"parameterUnit":"m.s-1","parameterCategory":2,"la1":30.2991,"la2":30.254,"lo1":-89.0895,"lo2":-89.0444,"dy":0.0017,"dx":0.0017,"nx":28,"ny":28,"refTime":"2023-08-10T21:00:00:Z","depth":"4","parameterNumber":3,"parameterNumberName":"V-component_of_CURRENTS"},"data":[0,0,0,0,0,0,0,0,0,0,0,0,0,0,0,0,0,0,0,0,0,0,0,0,0,0,0,0,0,0,0,0,0,0,0,0,0,0,0,0,0,0,0,0,0,0,0,0,0,0,0,0,0,0,0,0,0,0,-0.0016,-0.0015,0,0.0002,0.0002,0.0003,0.0018,0.0018,0.0018,0.0018,0.0005,0.0004,0.0004,0,0,0,0,0,0,0,0,0,0,0,0,0,-0.0003,-0.0004,-0.0016,-0.0015,-0.0015,0.0002,0.0002,0.0003,0.0018,0.0018,0.0018,0.0018,0.0005,0.0004,0.0004,0,0,0,0,0,0,0,0,0,0,0,0,0,0.0,-0.0004,-0.0016,-0.0006,-0.0005,0.0002,0.0002,0.0003,0.0018,0.0018,0.0018,0.0018,0.0005,0.0004,0.0004,-0.0006,0,0,0.0001,0.0001,0,0,0,0,0,0,0,0,0.0,-0.0,-0.0007,-0.0006,-0.0005,0.0008,0.0002,-0.0002,0.0017,0.0009,0.0018,0.0018,0.0003,0.0002,0.0005,-0.0007,-0.0007,0.0001,0.0001,0.0,0.0,0,0,0,0,0,0,0,-0.0,-0.0001,-0.0009,-0.0007,-0.0006,0.001,0.001,0.0002,0.0004,0.001,0.0011,0.0013,0.0003,0.0006,0.0005,-0.0008,0.0001,0.0001,0.0,-0.0,-0.009,-0.0092,0,0,0,0,0,0,-0.0004,-0.0001,-0.0009,-0.0008,-0.0002,0.0009,0.001,0.0004,0.0004,0.0005,0.0013,0.0014,0.0007,0.0006,0.0005,-0.0058,0.0,-0.0,-0.0001,-0.0088,-0.009,-0.0092,0,0,0,0,0,0,-0.0004,-0.0006,-0.001,-0.0003,-0.0003,0.0008,0.0002,0.0004,0.0003,0.0007,0.0007,0.001,0.0007,0.0006,-0.0018,-0.0056,-0.0001,-0.0001,-0.0086,-0.0089,-0.0091,-0.015,0,0,0,0,0,0,-0.0004,-0.0006,-0.0011,-0.0004,-0.0004,-0.0023,0.0001,0.0004,0.0004,0.0006,0.0004,0.0004,0.0008,-0.0017,-0.0019,-0.0056,-0.0002,-0.0083,-0.0087,-0.009,-0.0146,-0.0155,-0.0163,0,0,0,0,0,-0.0004,-0.0009,-0.0012,-0.0012,-0.0012,-0.0024,-0.0023,-0.0013,0.0004,-0.001,-0.0009,0.0004,-0.0042,-0.0019,-0.002,-0.0059,-0.0082,-0.0086,-0.009,-0.0142,-0.0153,-0.0162,0,0,0,0,0,0,-0.0004,-0.0007,-0.0011,-0.0016,-0.003,-0.0022,-0.0025,-0.0017,-0.0024,-0.0021,-0.0012,-0.0014,-0.0056,-0.0048,-0.0023,-0.0098,-0.0063,-0.0068,-0.0103,-0.0113,-0.0121,-0.011,-0.0003,0,0,0,0,0,-0.0008,-0.0015,-0.0023,-0.0031,-0.0038,-0.0033,-0.0034,-0.0032,-0.0035,-0.0037,-0.004,-0.0049,-0.0075,-0.0084,-0.0103,-0.0133,-0.0116,-0.0164,-0.0172,-0.0179,-0.0174,-0.0159,-0.0165,-0.0107,-0.0107,-0.0107,0,0,-0.0012,-0.0013,-0.0019,-0.0032,-0.0036,-0.0054,-0.0034,-0.0043,-0.0065,-0.0039,-0.0068,-0.0079,-0.009,-0.0134,-0.0152,-0.0131,-0.0196,-0.0184,-0.019,-0.0181,-0.0164,-0.0169,-0.0174,-0.011,-0.0109,-0.0109,0,0,-0.0024,-0.0027,-0.0041,-0.0052,-0.0064,-0.0068,-0.0074,-0.0081,-0.0094,-0.0126,-0.012,-0.0149,-0.0178,-0.0197,-0.0209,-0.0273,-0.0242,-0.0285,-0.0314,-0.0301,-0.0305,-0.0308,-0.0327,-0.0331,-0.0286,-0.0286,-0.0286,0,-0.0031,-0.0048,-0.0049,-0.0065,-0.0075,-0.0077,-0.01,-0.0117,-0.0134,-0.0156,-0.0148,-0.0205,-0.0212,-0.0266,-0.0287,-0.0293,-0.0279,-0.0273,-0.0309,-0.0311,-0.0313,-0.0331,-0.0335,-0.0289,-0.0289,-0.0289,-0.0288,0,-0.0054,-0.0071,-0.008,-0.0105,-0.0119,-0.0139,-0.0162,-0.0188,-0.0202,-0.0221,-0.0281,-0.0295,-0.0323,-0.0344,-0.0331,-0.0365,-0.0352,-0.0321,-0.0277,-0.0322,-0.034,-0.0342,-0.0294,-0.0293,-0.0292,-0.0291,0,0,-0.0066,-0.0093,-0.0097,-0.0117,-0.0141,-0.0156,-0.0201,-0.0249,-0.0278,-0.0316,-0.036,-0.0411,-0.0409,-0.0422,-0.0421,-0.0411,-0.0427,-0.0366,-0.0364,-0.0373,-0.0412,-0.0401,-0.0402,-0.0385,-0.0385,-0.0386,-0.043,0,-0.0091,-0.0123,-0.0133,-0.0175,-0.0197,-0.0217,-0.0255,-0.0295,-0.0333,-0.0377,-0.0415,-0.0457,-0.0444,-0.0457,-0.0449,-0.0424,-0.043,-0.0419,-0.0376,-0.0376,-0.0349,-0.0403,-0.0386,-0.0432,-0.0432,-0.0433,-0.0433,0,-0.0113,-0.0132,-0.0172,-0.0212,-0.0224,-0.0249,-0.0305,-0.0346,-0.0409,-0.044,-0.0487,-0.0501,-0.0529,-0.0494,-0.0487,-0.0472,-0.0449,-0.0429,-0.0429,-0.0392,-0.0367,-0.037,-0.0437,-0.0437,-0.0437,-0.0436,-0.0436,0,-0.0116,-0.016,-0.0191,-0.0204,-0.0249,-0.0277,-0.031,-0.0367,-0.0405,-0.0481,-0.05,-0.0544,-0.0551,-0.0532,-0.0502,-0.0483,-0.0476,-0.0449,-0.0434,-0.0435,-0.0402,-0.0397,-0.0443,-0.0443,-0.0443,-0.0443,-0.0443,0,-0.0133,-0.0162,-0.0195,-0.0213,-0.0255,-0.0285,-0.0339,-0.0385,-0.044,-0.0477,-0.0526,-0.0543,-0.0545,-0.0541,-0.0519,-0.0492,-0.0496,-0.0452,-0.0441,-0.0433,-0.0432,-0.0406,-0.0401,-0.0444,-0.0444,-0.0444,-0.0443,0,-0.0139,-0.0159,-0.0197,-0.0242,-0.0257,-0.0291,-0.0347,-0.0384,-0.0435,-0.0479,-0.05,-0.0537,-0.0531,-0.0543,-0.0517,-0.0506,-0.0491,-0.0481,-0.0506,-0.0495,-0.0461,-0.0459,-0.0479,-0.0479,-0.0479,-0.0478,-0.0478,0,-0.015,-0.0167,-0.021,-0.023,-0.0254,-0.0301,-0.0329,-0.0385,-0.0413,-0.0463,-0.0473,-0.0493,-0.0509,-0.0493,-0.0497,-0.0504,-0.0483,-0.0504,-0.0458,-0.0475,-0.0463,-0.0461,-0.0459,-0.0478,-0.0478,-0.0478,-0.0478,0,-0.0175,-0.0184,-0.0214,-0.024,-0.027,-0.0306,-0.0345,-0.0356,-0.0408,-0.0436,-0.0444,-0.0462,-0.046,-0.0467,-0.0484,-0.0476,-0.0508,-0.0502,-0.0501,-0.0458,-0.0474,-0.0462,-0.046,-0.0478,-0.0478,-0.0478,-0.0478,0,-0.0197,-0.0213,-0.0237,-0.0257,-0.0286,-0.0308,-0.033,-0.0348,-0.0374,-0.0408,-0.04,-0.0425,-0.0439,-0.0452,-0.046,-0.0468,-0.0452,-0.045,-0.0451,-0.0452,-0.0422,-0.0437,-0.0429,0,0,0,0,0,-0.0221,-0.0232,-0.0253,-0.0276,-0.0295,-0.0307,-0.0338,-0.0353,-0.037,-0.0366,-0.0386,-0.0385,-0.0405,-0.042,-0.0421,-0.0452,-0.0461,-0.0455,-0.046,-0.0476,-0.0476,-0.0442,0,0,0,0,0,0,-0.0245,-0.0264,-0.0256,-0.0275,-0.0285,-0.0311,-0.0327,-0.0341,-0.0337,-0.035,-0.0354,-0.0373,-0.0388,-0.039,-0.0412,-0.0419,-0.0421,-0.0468,-0.0468,-0.0475,-0.0476,-0.0476,-0.0442,0,0,0,0,0]}]]